Weather History for Meeker, CO

Change the Weather History Date:

Tuesday, May 12, 2009

  Actual Average Record
Temperature  
Mean Temperature 62 °F 50 °F  
Max Temperature 78 °F 66 °F 81 °F (2001)
Min Temperature 46 °F 34 °F 21 °F (2000)
Degree Days  
Heating Degree Days 4 15  
Month to date heating degree days 202  
Since 1 July heating degree days 7615  
Cooling Degree Days 0 0  
Month to date cooling degree days 0  
Year to date cooling degree days 0  
Growing Degree Days 12 (Base 50)    
Moisture  
Dew Point 27 °F    
Average Humidity 30    
Maximum Humidity 68    
Minimum Humidity 11    
Precipitation  
Precipitation 0.00 in 0.05 in 0.54 in (2008)
Month to date precipitation 0.65  
Year to date precipitation 5.35  
Sea Level Pressure  
Sea Level Pressure 29.57 in    
Wind  
Wind Speed 11 mph (WSW)    
Max Wind Speed 25 mph    
Max Gust Speed 40 mph    
Visibility 10 miles    
Events      
T = Trace of Precipitation, MM = Missing Value Source: NWS Daily Summary

Daily Weather History Graph

Daily Weather History Graph

Search for Another Location

Airport:

Trip Planner

Search our weather history database for the weather conditions in past years. The results will help you decide how hot, cold, wet, or windy it might be!

Date:

Astronomy

May. 12, 2009 Rise Set
Actual Time 5:58 AM MDT 8:17 PM MDT
Civil Twilight 5:28 AM MDT 8:48 PM MDT
Nautical Twilight 4:50 AM MDT 9:25 PM MDT
Astronomical Twilight 4:09 AM MDT 10:07 PM MDT
Moon 11:57 PM MDT (5/12) 8:14 AM MDT (5/12)
Length of Visible Light 15h 19m
Length of Day
14h 18m
Waning Gibbous, 88% of the Moon is Illuminated
May 12
Waning Gibbous
May 17
Last Quarter
May 24
New
May 30
First Quarter
Jun 7
Full

Hourly Weather History & Observations

Time (MDT) Temp. Dew Point Humidity Pressure Visibility Wind Dir Wind Speed Gust Speed Precip Events Conditions
12:53 AM 55.0 °F 34.0 °F 45% 29.72 in 10.0 mi West 8.1 mph - N/A   Mostly Cloudy
1:53 AM 55.0 °F 32.0 °F 42% 29.69 in 10.0 mi East 8.1 mph - N/A   Overcast
3:53 AM 51.1 °F 37.0 °F 59% 29.67 in 10.0 mi East 5.8 mph - 0.00 in   Scattered Clouds
4:53 AM 51.1 °F 34.0 °F 52% 29.65 in 10.0 mi ESE 10.4 mph - N/A   Partly Cloudy
5:53 AM 50.0 °F 36.0 °F 59% 29.68 in 10.0 mi NNE 6.9 mph - N/A   Partly Cloudy
6:53 AM 46.9 °F 37.0 °F 68% 29.70 in 10.0 mi ENE 4.6 mph - N/A   Clear
7:53 AM 55.0 °F 39.9 °F 57% 29.68 in 10.0 mi Calm Calm - N/A   Clear
8:53 AM 64.0 °F 36.0 °F 35% 29.61 in 10.0 mi Calm Calm - N/A   Clear
9:53 AM 69.1 °F 33.1 °F 26% 29.58 in 10.0 mi WSW 11.5 mph - N/A   Clear
10:53 AM 71.1 °F 30.9 °F 23% 29.57 in 10.0 mi SW 18.4 mph 27.6 mph N/A   Partly Cloudy
11:53 AM 73.0 °F 26.1 °F 17% 29.54 in 10.0 mi SW 20.7 mph 35.7 mph N/A   Partly Cloudy
12:53 PM 73.9 °F 25.0 °F 16% 29.51 in 10.0 mi SW 25.3 mph 35.7 mph N/A   Clear
1:53 PM 73.0 °F 23.0 °F 15% 29.51 in 10.0 mi SSW 24.2 mph 40.3 mph N/A   Clear
2:53 PM 75.9 °F 19.0 °F 12% 29.47 in 10.0 mi SW 21.9 mph 39.1 mph N/A   Clear
3:53 PM 77.0 °F 18.0 °F 11% 29.46 in 10.0 mi SW 19.6 mph 35.7 mph N/A   Clear
4:53 PM 75.0 °F 18.0 °F 12% 29.45 in 10.0 mi SW 23.0 mph 36.8 mph N/A   Clear
5:53 PM 73.0 °F 18.0 °F 12% 29.47 in 10.0 mi WSW 21.9 mph 29.9 mph N/A   Partly Cloudy
6:53 PM 69.1 °F 23.0 °F 18% 29.51 in 10.0 mi West 18.4 mph 32.2 mph N/A   Clear
7:53 PM 66.0 °F 23.0 °F 20% 29.51 in 10.0 mi West 8.1 mph 18.4 mph N/A   Clear
8:53 PM 66.0 °F 19.9 °F 17% 29.50 in 10.0 mi West 12.7 mph 19.6 mph N/A   Clear
9:53 PM 63.0 °F 21.0 °F 20% 29.52 in 10.0 mi West 11.5 mph - N/A   Clear
10:53 PM 63.0 °F 19.9 °F 19% 29.55 in 10.0 mi WSW 16.1 mph - N/A   Clear
11:53 PM 55.9 °F 23.0 °F 28% 29.59 in 10.0 mi NNE 17.3 mph 20.7 mph N/A   Clear